Weather History for Spokane Felts, WA

Change the Weather History Date:

Monday, February 18, 2013

  Actual Average Record
Temperature  
Mean Temperature 35 °F 34 °F  
Max Temperature 44 °F 43 °F 51 °F (1998)
Min Temperature 26 °F 26 °F 8 °F (2006)
Degree Days  
Heating Degree Days 30 30  
Month to date heating degree days 519 566  
Since 1 July heating degree days 3820 4278  
Cooling Degree Days 0 0  
Month to date cooling degree days 0 0  
Year to date cooling degree days 0 0  
Moisture  
Dew Point 24 °F    
Average Humidity 61    
Maximum Humidity 81    
Minimum Humidity 40    
Precipitation  
Precipitation 0.00 in 0.04 in 0.26 in (2014)
Month to date precipitation 0.08 0.98  
Year to date precipitation 1.71 2.93  
Sea Level Pressure  
Sea Level Pressure 29.96 in    
Wind  
Wind Speed 3 mph (ENE)    
Max Wind Speed 10 mph    
Max Gust Speed 16 mph    
Visibility 10 miles    
Events      
T = Trace of Precipitation, MM = Missing Value Source: NWS Daily Summary

Daily Weather History Graph

Daily Weather History Graph

Search for Another Location

Airport:

Trip Planner

Search our weather history database for the weather conditions in past years. The results will help you decide how hot, cold, wet, or windy it might be!

Date:

Astronomy

Feb. 18, 2013 Rise Set
Actual Time 6:49 AM PST 5:17 PM PST
Civil Twilight 6:17 AM PST 5:49 PM PST
Nautical Twilight 5:41 AM PST 6:25 PM PST
Astronomical Twilight 5:06 AM PST 7:00 PM PST
Moon 10:54 AM PST (2/18) 1:45 AM PST (2/18)
Length of Visible Light 11h 31m
Length of Day
10h 28m
First Quarter, 59% of the Moon is Illuminated
Feb 18
First Quarter
Feb 25
Full
Mar 4
Last Quarter
Mar 11
New
Mar 19
First Quarter

Hourly Weather History & Observations

Time (PST) Temp. Windchill Dew Point Humidity Pressure Visibility Wind Dir Wind Speed Gust Speed Precip Events Conditions
12:53 AM 30.9 °F 27.5 °F 24.1 °F 76% 30.12 in 10.0 mi NNE 3.5 mph - N/A   Clear
1:53 AM 30.0 °F 26.5 °F 24.1 °F 79% 30.12 in 10.0 mi NE 3.5 mph - N/A   Mostly Cloudy
2:53 AM 30.0 °F 26.5 °F 23.0 °F 75% 30.11 in 10.0 mi ENE 3.5 mph - N/A   Clear
3:53 AM 28.9 °F - 23.0 °F 78% 30.10 in 10.0 mi Calm Calm - N/A   Clear
4:53 AM 28.0 °F 24.2 °F 23.0 °F 81% 30.10 in 10.0 mi NE 3.5 mph - N/A   Mostly Cloudy
5:53 AM 28.0 °F - 23.0 °F 81% 30.09 in 10.0 mi Calm Calm - N/A   Clear
6:53 AM 27.0 °F - 21.9 °F 81% 30.07 in 10.0 mi Calm Calm - N/A   Clear
7:53 AM 30.0 °F - 24.1 °F 79% 30.06 in 10.0 mi Calm Calm - N/A   Clear
8:53 AM 34.0 °F - 26.1 °F 73% 30.03 in 10.0 mi Calm Calm - N/A   Clear
9:53 AM 39.0 °F 33.4 °F 26.1 °F 60% 30.01 in 10.0 mi East 8.1 mph - N/A   Clear
10:53 AM 41.0 °F 35.8 °F 26.1 °F 55% 30.00 in 10.0 mi East 8.1 mph - N/A   Clear
11:53 AM 43.0 °F 38.8 °F 26.1 °F 51% 29.97 in 10.0 mi East 6.9 mph - N/A   Partly Cloudy
12:53 PM 44.1 °F 40.8 °F 23.0 °F 43% 29.95 in 10.0 mi Variable 5.8 mph - N/A   Overcast
1:53 PM 44.1 °F 40.1 °F 23.0 °F 43% 29.93 in 10.0 mi ESE 6.9 mph - N/A   Overcast
2:53 PM 44.1 °F 41.5 °F 21.9 °F 42% 29.91 in 10.0 mi SSE 4.6 mph - N/A   Overcast
3:53 PM 44.1 °F - 23.0 °F 43% 29.90 in 10.0 mi Calm Calm - N/A   Overcast
4:53 PM 41.0 °F 36.4 °F 24.1 °F 51% 29.88 in 10.0 mi ENE 6.9 mph - N/A   Mostly Cloudy
5:53 PM 39.0 °F 36.8 °F 24.1 °F 55% 29.87 in 10.0 mi NE 3.5 mph - N/A   Scattered Clouds
6:53 PM 39.9 °F - 24.1 °F 53% 29.86 in 10.0 mi Calm Calm - N/A   Mostly Cloudy
7:53 PM 37.9 °F 35.5 °F 25.0 °F 60% 29.84 in 10.0 mi NE 3.5 mph - N/A   Partly Cloudy
8:53 PM 35.1 °F - 26.1 °F 70% 29.83 in 10.0 mi Calm Calm - N/A   Overcast
9:53 PM 35.1 °F - 25.0 °F 67% 29.82 in 10.0 mi Calm Calm - N/A   Overcast
10:53 PM 36.0 °F - 27.0 °F 70% 29.81 in 10.0 mi Calm Calm - N/A   Overcast
11:53 PM 33.8 °F - 26.6 °F 75% 29.78 in 10.0 mi Calm Calm - N/A   Overcast